TimeEDT,TemperatureF,Dew PointF,Humidity,Sea Level PressureIn,VisibilityMPH,Wind Direction,Wind SpeedMPH,Gust SpeedMPH,PrecipitationIn,Events,Conditions,WindDirDegrees,DateUTC
12:15 AM,42.8,35.6,76,29.87,10.0,South,6.9,-,N/A,,Overcast,170,2013-04-01 04:15:00
12:35 AM,42.8,37.4,81,29.86,10.0,SSE,9.2,-,N/A,,Overcast,150,2013-04-01 04:35:00
12:55 AM,42.8,37.4,81,29.85,10.0,SSE,8.1,16.1,N/A,,Overcast,160,2013-04-01 04:55:00
1:15 AM,42.8,37.4,81,29.84,10.0,SSE,10.4,16.1,N/A,,Overcast,160,2013-04-01 05:15:00
1:55 AM,42.8,37.4,81,29.82,10.0,SSE,11.5,17.3,N/A,,Mostly Cloudy,150,2013-04-01 05:55:00
2:15 AM,42.8,37.4,81,29.82,10.0,SSE,13.8,21.9,N/A,,Overcast,160,2013-04-01 06:15:00
2:35 AM,42.8,39.2,87,29.81,9.0,SSE,13.8,-,0.02,,Overcast,160,2013-04-01 06:35:00
3:15 AM,41.0,39.2,93,29.80,10.0,SSE,9.2,-,0.05,,Overcast,160,2013-04-01 07:15:00
3:35 AM,41.0,39.2,93,29.78,7.0,ESE,6.9,-,0.09,,Overcast,120,2013-04-01 07:35:00
4:15 AM,39.2,39.2,100,29.74,5.0,ENE,8.1,-,0.05,,Overcast,60,2013-04-01 08:15:00
4:35 AM,39.2,39.2,100,29.71,6.0,ENE,10.4,-,0.08,,Overcast,60,2013-04-01 08:35:00
4:55 AM,41.0,39.2,93,29.68,8.0,NE,11.5,17.3,0.13,,Overcast,50,2013-04-01 08:55:00
5:15 AM,41.0,39.2,93,29.67,7.0,ENE,13.8,18.4,0.05,,Overcast,60,2013-04-01 09:15:00
5:35 AM,41.0,39.2,93,29.65,7.0,ENE,17.3,-,0.12,,Overcast,60,2013-04-01 09:35:00
5:55 AM,41.0,39.2,93,29.64,6.0,ENE,16.1,24.2,0.21,,Overcast,60,2013-04-01 09:55:00
6:15 AM,41.0,39.2,93,29.62,5.0,ENE,17.3,24.2,0.04,,Overcast,70,2013-04-01 10:15:00
6:35 AM,41.0,39.2,93,29.60,5.0,East,18.4,25.3,0.08,,Overcast,80,2013-04-01 10:35:00
7:15 AM,39.2,39.2,100,29.57,3.0,ENE,15.0,23.0,0.01,,Overcast,70,2013-04-01 11:15:00
7:35 AM,39.2,39.2,100,29.55,2.5,ENE,16.1,-,0.02,,Overcast,60,2013-04-01 11:35:00
7:55 AM,39.2,39.2,100,29.53,3.0,ENE,13.8,23.0,0.02,,Overcast,70,2013-04-01 11:55:00
8:15 AM,41.0,39.2,93,29.51,4.0,ENE,15.0,23.0,0.01,,Overcast,70,2013-04-01 12:15:00
8:35 AM,41.0,39.2,93,29.48,5.0,ENE,11.5,18.4,0.01,,Overcast,60,2013-04-01 12:35:00
9:15 AM,41.0,41.0,100,29.48,1.0,North,4.6,-,N/A,,Overcast,360,2013-04-01 13:15:00
9:35 AM,41.0,39.2,93,29.46,2.0,North,5.8,-,N/A,,Overcast,360,2013-04-01 13:35:00
9:55 AM,41.0,41.0,100,29.47,2.5,North,5.8,-,N/A,,Overcast,10,2013-04-01 13:55:00
10:15 AM,41.0,41.0,100,29.49,4.0,NNW,3.5,-,N/A,,Overcast,330,2013-04-01 14:15:00
10:55 AM,42.8,42.8,100,29.50,10.0,WNW,6.9,-,N/A,,Overcast,290,2013-04-01 14:55:00
11:15 AM,42.8,41.0,93,29.51,10.0,WNW,11.5,17.3,N/A,,Overcast,300,2013-04-01 15:15:00
11:35 AM,42.8,39.2,87,29.51,10.0,WNW,8.1,-,N/A,,Overcast,300,2013-04-01 15:35:00
12:15 PM,44.6,41.0,87,29.51,10.0,West,17.3,20.7,N/A,,Overcast,280,2013-04-01 16:15:00
12:35 PM,44.6,39.2,81,29.52,10.0,West,18.4,-,N/A,,Overcast,280,2013-04-01 16:35:00
1:16 PM,46.4,41.0,81,29.52,10.0,WNW,12.7,17.3,N/A,,Overcast,290,2013-04-01 17:16:00
1:35 PM,46.4,39.2,76,29.51,10.0,West,16.1,21.9,N/A,,Mostly Cloudy,280,2013-04-01 17:35:00
1:55 PM,48.2,39.2,71,29.52,10.0,West,13.8,18.4,N/A,,Mostly Cloudy,260,2013-04-01 17:55:00
2:15 PM,48.2,41.0,76,29.52,10.0,West,8.1,-,N/A,,Scattered Clouds,260,2013-04-01 18:15:00
2:35 PM,50.0,39.2,66,29.52,10.0,West,13.8,17.3,N/A,,Mostly Cloudy,260,2013-04-01 18:35:00
2:55 PM,46.4,39.2,76,29.53,10.0,South,13.8,18.4,N/A,,Mostly Cloudy,190,2013-04-01 18:55:00
3:15 PM,46.4,39.2,76,29.53,10.0,South,12.7,17.3,N/A,,Mostly Cloudy,180,2013-04-01 19:15:00
3:35 PM,44.6,39.2,81,29.54,10.0,South,13.8,20.7,N/A,,Scattered Clouds,190,2013-04-01 19:35:00
4:15 PM,46.4,39.2,76,29.53,10.0,South,9.2,17.3,N/A,,Clear,190,2013-04-01 20:15:00
4:35 PM,46.4,39.2,76,29.52,10.0,SSW,10.4,-,N/A,,Partly Cloudy,200,2013-04-01 20:35:00
4:55 PM,46.4,39.2,76,29.52,10.0,SSW,8.1,-,N/A,,Mostly Cloudy,210,2013-04-01 20:55:00
5:15 PM,44.6,39.2,81,29.52,10.0,South,9.2,-,N/A,,Scattered Clouds,180,2013-04-01 21:15:00
5:35 PM,42.8,39.2,87,29.51,10.0,SSE,6.9,-,N/A,,Mostly Cloudy,160,2013-04-01 21:35:00
5:55 PM,42.8,39.2,87,29.51,10.0,SE,3.5,-,N/A,,Overcast,140,2013-04-01 21:55:00
6:15 PM,42.8,39.2,87,29.52,10.0,SSW,13.8,19.6,N/A,,Mostly Cloudy,210,2013-04-01 22:15:00
6:35 PM,42.8,41.0,93,29.51,5.0,South,4.6,-,N/A,,Overcast,190,2013-04-01 22:35:00
7:15 PM,44.6,42.8,93,29.51,10.0,WSW,6.9,-,N/A,,Overcast,240,2013-04-01 23:15:00
7:35 PM,44.6,42.8,93,29.52,9.0,WSW,8.1,-,0.01,,Overcast,240,2013-04-01 23:35:00
7:55 PM,44.6,42.8,93,29.52,10.0,West,9.2,-,0.02,,Mostly Cloudy,270,2013-04-01 23:55:00
8:15 PM,42.8,41.0,93,29.55,10.0,NW,11.5,25.3,0.01,,Overcast,320,2013-04-02 00:15:00
8:35 PM,39.2,35.6,87,29.57,10.0,WNW,8.1,23.0,0.02,,Mostly Cloudy,300,2013-04-02 00:35:00
8:55 PM,39.2,35.6,87,29.58,10.0,WNW,11.5,16.1,0.02,,Mostly Cloudy,300,2013-04-02 00:55:00
9:15 PM,39.2,37.4,93,29.58,10.0,NW,6.9,-,N/A,,Mostly Cloudy,310,2013-04-02 01:15:00
9:35 PM,39.2,35.6,87,29.59,10.0,WNW,11.5,17.3,N/A,,Mostly Cloudy,300,2013-04-02 01:35:00
9:55 PM,39.2,33.8,81,29.59,10.0,WNW,11.5,16.1,N/A,,Overcast,290,2013-04-02 01:55:00
10:15 PM,37.4,32.0,81,29.60,10.0,WNW,13.8,-,N/A,,Overcast,290,2013-04-02 02:15:00
10:35 PM,37.4,26.6,65,29.62,10.0,WNW,12.7,19.6,N/A,,Scattered Clouds,300,2013-04-02 02:35:00
10:55 PM,37.4,24.8,60,29.63,10.0,WNW,11.5,18.4,N/A,,Clear,300,2013-04-02 02:55:00
11:15 PM,35.6,23.0,60,29.63,10.0,WNW,11.5,16.1,N/A,,Clear,290,2013-04-02 03:15:00
11:35 PM,35.6,21.2,56,29.63,10.0,WNW,13.8,23.0,N/A,,Clear,300,2013-04-02 03:35:00
11:55 PM,35.6,19.4,52,29.63,10.0,WNW,12.7,21.9,N/A,,Clear,290,2013-04-02 03:55:00